Dubuque Regional Airport
KDBQ : now visible

Airfield :











YOU CAN JOIN US ON...

 
LOGIN :

Register | Disclaimer

   EN    FR    IT 

 









Legend :    VFR   Marginal VFR   IFR   Intensive IFR   Very Intensive IFR
Visi :
Ceiling :
>= 8 km
>= 3000ft
5 to 8 km
1000 to 3000 ft
1500m to 5 km
500 to 1000 ft
800 to 1500m
200 to 500 ft
< 800m
< 200 ft
Symbols :   Thunderstorms  Fog  Heavy snow  Heavy precipitations  Wind > 20 kt






- Airport Elevation : 1077 ft
- IATA code : DBQ


KDBQ - Dubuque Regional

CURRENT METAR :
  • 011453Z 20006KT 10SM CLR M14/M18 A3024 RMK AO2 SLP270 T11441178 53003

EXPIRED METARs :
  • 011353Z 21008KT 10SM CLR M17/M19 A3024 RMK AO2 SLP271 T11671194 $
  • 011253Z 20008KT 10SM CLR M16/M19 A3023 RMK AO2 SLP267 T11611194 $

TAF KDBQ
Valid from the 01 at 12:00 until the 02 at 12:00 UTC


011120Z 0112/0212 20008KT P6SM SKC
FM011700 22010G20KT P6SM SKC
KZAU FIR / North America



MET'MAP, your aeronautical weather chart ! - Copyright ORBIFLY December 2007 - Disclaimer

ORBIFLY MET'MAP TEAM :

Programming & Development : Alexandra Zaïnal
Original concept : Baudouin d'Aumeries
Technical & hardware support : Manuel Goepfert
Assistance : Marc-Olivier Méhu




SOURCES & CREDITS :

   NOAA       Earth
Advisory